Flag for Russia Weather past 2 weeks in Orenburg, Russia

Now
54 °F

Fog.


Feels Like: 53 °F
Forecast: 49 / 72 °F
Wind: 3 mph from North

Location: Orenburg / Tsentralny

Current Time: Apr 28, 2015 at 12:02:32 PM

Latest Report: Apr 28, 2015 at 11:30 AM


Visibility: 3 mi

Pressure: 30.15 "Hg

Humidity: 82%

Dew point: 48 °F

Location of OrenburgLocation

Historic Weather in Orenburg — Graph

°F

Orenburg temperature yesterday

Maximum temperature yesterday: 48 °F (at 8:30 PM)
Minimum temperature yesterday: 32 °F (at 3:30 AM)
Average temperature yesterday: 40 °F

Past Weeks' High & Low Weather Summary

 TemperatureHumidityPressure
High79 °F (Apr 28, 5:00 AM)100% (Apr 19, 8:00 AM)30.30 "Hg (Apr 19, 8:00 AM)
Low27 °F (Apr 14, 6:30 AM)17% (Apr 15, 6:00 PM)29.42 "Hg (Apr 20, 1:00 PM)
Average45 °F68%29.80 "Hg
* Reported Apr 13 11:00 AM — Apr 28 11:00 AM, Orenburg, Weather by CustomWeather, © 2015

Note: Actual official high and low records may vary slightly from our data, if they occured in-between our weather recording intervals... More about our weather records

Advertising

Orenburg weather history for previous 24 hours

 ConditionsComfort  
Time TempWeatherWind HumidityBarometerVisibility
11:00 AM
Tue, Apr 28
54 °FFog.6 mph88%30.15 "Hg3 mi
10:30 AM55 °FFog.6 mph88%30.15 "Hg3 mi
10:00 AM54 °FFog.1 mph88%30.12 "Hg3 mi
9:30 AM52 °FFog.1 mph94%30.12 "Hg3 mi
8:30 AM52 °FFog.1 mph94%30.09 "Hg2 mi
8:00 AM50 °FFog.6 mph94%30.09 "Hg1 mi
7:30 AM79 °FWarm.3 mphN/AN/A1 mi
7:00 AM48 °FFog.3 mph94%30.07 "Hg1 mi
6:30 AM46 °FFog.3 mph93%30.07 "Hg1 mi
6:00 AM46 °FRain showers. Fog.No wind93%30.04 "Hg1 mi
5:30 AM46 °FSprinkles. Fog.3 mph93%30.04 "Hg1 mi
5:00 AM79 °FWarm.3 mphN/AN/A1 mi
4:30 AM45 °FQuite cool.1 mph100%30.01 "HgN/A
4:00 AM46 °FCool.3 mph93%30.01 "HgN/A
3:30 AM46 °FCool.3 mph93%30.01 "HgN/A
3:00 AM45 °FQuite cool.6 mph100%30.01 "HgN/A
2:30 AM45 °FQuite cool.1 mph100%30.01 "HgN/A
2:00 AM45 °FFog.3 mph100%30.01 "Hg1 mi
1:30 AM45 °FFog.3 mph93%30.01 "Hg1 mi
1:00 AM45 °FFog.3 mph93%30.01 "Hg2 mi
12:30 AM45 °FFog.3 mph93%30.01 "Hg2 mi
12:00 AM45 °FFog.1 mph93%30.01 "Hg2 mi
11:30 PM
Mon, Apr 27
43 °FFog.1 mph100%30.01 "Hg2 mi
11:00 PM45 °FSprinkles. Overcast.1 mph100%30.01 "Hg2 mi
10:30 PM45 °FSprinkles. Overcast.3 mph93%30.04 "Hg2 mi
10:00 PM45 °FSprinkles. Overcast.3 mph93%30.01 "Hg2 mi
9:30 PM45 °FSprinkles. Overcast.6 mph93%30.01 "Hg2 mi
9:00 PM46 °FSprinkles. Overcast.3 mph93%30.01 "Hg2 mi
8:30 PM48 °FSprinkles. Overcast.6 mph87%30.01 "Hg2 mi
8:00 PM46 °FSprinkles. Overcast.3 mph87%29.98 "Hg2 mi
7:30 PM46 °FMostly cloudy.6 mph87%29.95 "HgN/A
7:00 PM46 °FMostly cloudy.3 mph87%29.95 "HgN/A
6:30 PM46 °FMostly cloudy.8 mph87%29.95 "HgN/A
6:00 PM46 °FOvercast.3 mph82%29.98 "HgN/A
5:30 PM46 °FOvercast.6 mph82%29.98 "HgN/A
5:00 PM45 °FOvercast.8 mph87%30.01 "HgN/A
4:30 PM45 °FLight rain. Overcast.6 mph87%30.01 "Hg3 mi
4:00 PM45 °FLight rain. Overcast.6 mph87%30.04 "Hg3 mi
3:30 PM45 °FLight rain. Overcast.3 mph81%30.04 "Hg3 mi
3:00 PM45 °FLight rain. Overcast.3 mph81%30.04 "Hg3 mi
2:30 PM43 °FLight rain. Overcast.3 mph87%30.04 "Hg3 mi
2:00 PM43 °FLight rain. Overcast.3 mph87%30.07 "Hg2 mi
1:30 PM41 °FLight rain. Overcast.1 mph87%30.07 "Hg2 mi
1:00 PM41 °FLight rain. Overcast.1 mph87%30.07 "Hg2 mi
12:30 PM41 °FLight rain. Overcast.1 mph81%30.07 "Hg2 mi
12:00 PM41 °FLight rain. Overcast.3 mph81%30.09 "Hg2 mi
Weather by CustomWeather, © 2015

See weather overviewHow to use our weather pages